Date String (YYYY-MM-DD hh:mm:ss) UTC,Instrument flags,Ambient pressure (hPa),Sample flow (lpm),Bypass flow (lpm),Sample temperature (°C),Ambient temperature (°C),ASC tube jacket temperature (°C),LED temperature (°C),Box temperature (°C),Sample RH (%),Span deviation,Mass concentration (μg/m³),Mass concentration (μg/m³),Mass concentration (μg/m³)
DateTimeUTC,F1_M11,P_M11,Q1_M11,Q2_M11,T1_M11,T2_M11,T3_M11,T4_M11,T5_M11,U1_M11,ZSPAN_M11,X0_M11,X2_M11,X1_M11
2021-12-15 14:00:00,,0803.9,4.99,0.00,24.6,23.8,00.0,33.6,26.4,13.2,0000.0,0011.93,0002.76,0001.25
2021-12-15 14:01:00,,0803.8,5.01,0.00,24.7,23.8,00.0,33.6,26.4,12.7,0000.0,0012.35,0002.76,0001.25
2021-12-15 14:02:00,,0803.8,5.01,0.00,24.7,23.8,00.0,33.6,26.4,12.7,0000.0,0012.32,0002.73,0001.24
2021-12-15 14:03:00,,0803.7,4.99,0.00,24.7,23.8,00.0,33.6,26.5,12.8,0000.0,0012.02,0002.65,0001.23
2021-12-15 14:04:00,,0803.7,4.99,0.00,24.7,23.8,00.0,33.6,26.5,12.8,0000.0,0011.79,0002.61,0001.23
2021-12-15 14:05:00,,0803.7,5.00,0.00,24.7,23.9,00.0,33.6,26.4,12.8,0000.0,0011.45,0002.66,0001.25
2021-12-15 14:06:00,,0803.6,5.01,0.00,24.7,23.9,00.0,33.6,26.5,12.8,0000.0,0011.22,0002.68,0001.26
2021-12-15 14:07:00,,0803.5,5.02,0.00,24.7,23.9,00.0,33.6,26.5,13.1,0000.0,0010.53,0002.73,0001.25
2021-12-15 14:08:00,,0803.4,5.00,0.00,24.7,23.9,00.0,33.6,26.5,13.3,0000.0,0010.66,0002.82,0001.24
2021-12-15 14:09:00,,0803.4,4.98,0.00,24.7,23.9,00.0,33.6,26.5,13.0,0000.0,0010.47,0002.71,0001.23
2021-12-15 14:10:00,,0803.4,4.99,0.00,24.7,23.9,00.0,33.6,26.5,13.3,0000.0,0011.08,0002.70,0001.22
2021-12-15 14:11:00,,0803.4,5.01,0.00,24.7,23.9,00.0,33.6,26.5,13.4,0000.0,0011.50,0002.72,0001.21
2021-12-15 14:12:00,,0803.4,5.00,0.00,24.7,23.9,00.0,33.6,26.5,13.5,0000.0,0011.74,0002.79,0001.20
2021-12-15 14:13:00,,0803.3,5.00,0.00,24.7,23.9,00.0,33.6,26.5,13.6,0000.0,0012.03,0002.86,0001.20
2021-12-15 14:14:00,,0803.3,5.01,0.00,24.7,23.9,00.0,33.6,26.5,13.7,0000.0,0011.82,0002.90,0001.19
2021-12-15 14:15:00,,0803.3,4.99,0.00,24.7,23.9,00.0,33.6,26.5,13.7,0000.0,0011.80,0002.92,0001.16
2021-12-15 14:16:00,,0803.4,4.99,0.00,24.7,23.9,00.0,33.6,26.4,13.7,0000.0,0011.77,0002.89,0001.14
2021-12-15 14:17:00,,0803.4,5.01,0.00,24.7,23.9,00.0,33.6,26.5,12.9,0000.0,0011.85,0002.79,0001.12
2021-12-15 14:18:00,,0803.4,5.00,0.00,24.7,23.9,00.0,33.6,26.5,13.1,0000.0,0011.74,0002.76,0001.11
2021-12-15 14:19:00,,0803.4,5.01,0.00,24.7,23.8,00.0,33.6,26.4,13.0,0000.0,0010.76,0002.80,0001.12
2021-12-15 14:20:00,,0803.4,5.00,0.00,24.7,23.8,00.0,33.6,26.4,13.0,0000.0,0010.25,0002.77,0001.11
2021-12-15 14:21:00,,0803.4,4.99,0.00,24.7,23.8,00.0,33.6,26.4,13.2,0000.0,0010.00,0002.77,0001.10
2021-12-15 14:22:00,,0803.4,5.02,0.00,24.6,23.8,00.0,33.6,26.4,13.4,0000.0,0008.89,0002.73,0001.09
2021-12-15 14:23:00,,0803.4,4.98,0.00,24.6,23.8,00.0,33.6,26.4,13.3,0000.0,0008.56,0002.62,0001.08
2021-12-15 14:24:00,,0803.4,4.99,0.00,24.6,23.8,00.0,33.6,26.4,12.9,0000.0,0007.92,0002.53,0001.06
2021-12-15 14:25:00,,0803.4,5.01,0.00,24.6,23.8,00.0,33.6,26.4,12.4,0000.0,0007.63,0002.49,0001.06
2021-12-15 14:26:00,,0803.5,5.00,0.00,24.6,23.8,00.0,33.6,26.3,12.5,0000.0,0007.53,0002.44,0001.08
2021-12-15 14:27:00,,0803.6,5.00,0.00,24.6,23.8,00.0,33.6,26.3,12.5,0000.0,0007.08,0002.35,0001.07
2021-12-15 14:28:00,,0803.8,5.01,0.00,24.6,23.8,00.0,33.6,26.3,12.5,0000.0,0007.05,0002.27,0001.06
2021-12-15 14:29:00,,0803.8,4.99,0.00,24.6,23.8,00.0,33.6,26.3,12.6,0000.0,0007.85,0002.30,0001.04
2021-12-15 14:30:00,,0803.8,5.01,0.00,24.6,23.7,00.0,33.6,26.3,12.7,0000.0,0007.96,0002.26,0001.02
2021-12-15 14:31:00,,0803.8,5.00,0.00,24.6,23.7,00.0,33.6,26.3,12.7,0000.0,0007.96,0002.21,0000.99
2021-12-15 14:32:00,,0803.8,5.00,0.00,24.6,23.7,00.0,33.6,26.3,12.7,0000.0,0007.91,0002.25,0000.99
2021-12-15 14:33:00,,0803.9,4.99,0.00,24.6,23.7,00.0,33.6,26.2,12.8,0000.0,0008.02,0002.21,0000.97
2021-12-15 14:34:00,,0804.0,5.01,0.00,24.6,23.7,00.0,33.6,26.3,12.9,0000.0,0008.76,0002.17,0000.96
2021-12-15 14:35:00,,0803.9,5.01,0.00,24.6,23.7,00.0,33.6,26.3,13.0,0000.0,0009.51,0002.12,0000.93
2021-12-15 14:36:00,,0804.0,4.99,0.00,24.6,23.6,00.0,33.6,26.3,13.0,0000.0,0009.72,0002.00,0000.89
2021-12-15 14:37:00,,0804.1,5.00,0.00,24.6,23.6,00.0,33.6,26.2,13.0,0000.0,0009.59,0001.89,0000.84
2021-12-15 14:38:00,,0804.2,5.01,0.00,24.6,23.6,00.0,33.6,26.2,13.1,0000.0,0009.47,0001.84,0000.82
2021-12-15 14:39:00,,0804.6,4.99,0.00,24.6,23.6,00.0,33.6,26.2,13.1,0000.0,0009.45,0001.88,0000.80
2021-12-15 14:40:00,,0804.2,5.00,0.00,24.5,23.6,00.0,33.6,26.1,13.9,0000.0,0010.18,0001.93,0000.80
2021-12-15 14:41:00,,0804.5,5.01,0.00,24.5,23.4,00.0,33.6,26.2,17.3,0000.0,0012.74,0002.15,0000.79
2021-12-15 14:42:00,,0804.7,4.99,0.00,24.5,23.3,00.0,33.6,26.1,18.6,0000.0,0022.88,0002.39,0000.78
2021-12-15 14:43:00,,0804.9,5.01,0.00,24.4,23.2,00.0,33.6,26.1,18.4,0000.0,0027.74,0002.41,0000.73
2021-12-15 14:44:00,,0805.0,5.00,0.00,24.4,23.2,00.0,33.5,26.1,18.3,0000.0,0028.21,0002.38,0000.68
2021-12-15 14:45:00,,0805.0,4.99,0.00,24.4,23.1,00.0,33.5,26.0,18.2,0000.0,0028.13,0002.34,0000.64
2021-12-15 14:46:00,,0805.1,5.01,0.00,24.3,23.1,00.0,33.5,26.0,18.3,0000.0,0027.58,0002.32,0000.60
2021-12-15 14:47:00,,0804.9,5.00,0.00,24.3,23.1,00.0,33.5,26.0,18.7,0000.0,0026.96,0002.30,0000.56
2021-12-15 14:48:00,,0804.5,4.98,0.00,24.3,23.0,00.0,33.4,25.9,18.8,0000.0,0027.01,0002.27,0000.53
2021-12-15 14:49:00,,0804.1,5.00,0.00,24.2,22.9,00.0,33.4,25.9,18.5,0000.0,0027.15,0002.31,0000.49
2021-12-15 14:50:00,,0803.9,5.00,0.00,24.2,22.8,00.0,33.4,25.8,18.3,0000.0,0038.73,0002.52,0000.46
2021-12-15 14:51:00,,0804.5,5.00,0.00,24.1,22.7,00.0,33.3,25.7,18.1,0000.0,0069.69,0003.09,0000.46
2021-12-15 14:52:00,,0804.6,4.99,0.00,24.1,22.7,00.0,33.3,25.6,18.2,0000.0,0066.94,0002.69,0000.39
2021-12-15 14:53:00,,0804.5,4.99,0.00,24.0,22.6,00.0,33.3,25.6,18.4,0000.0,0061.21,0002.38,0000.34
2021-12-15 14:54:00,,0804.5,5.01,0.00,24.0,22.5,00.0,33.2,25.5,18.7,0000.0,0052.00,0002.14,0000.32
2021-12-15 14:55:00,,0804.5,5.00,0.00,23.9,22.4,00.0,33.2,25.5,18.7,0000.0,0051.67,0002.05,0000.30
2021-12-15 14:56:00,,0804.5,5.00,0.00,23.8,22.3,00.0,33.2,25.4,18.7,0000.0,0050.49,0002.02,0000.29
2021-12-15 14:57:00,,0804.5,4.99,0.00,23.8,22.3,00.0,33.1,25.3,18.7,0000.0,0050.30,0002.02,0000.29
2021-12-15 14:58:00,,0804.6,5.01,0.00,23.7,22.2,00.0,33.1,25.3,18.8,0000.0,0050.07,0001.96,0000.28
2021-12-15 14:59:00,,0804.6,5.00,0.00,23.7,22.2,00.0,33.0,25.3,19.0,0000.0,0049.90,0001.92,0000.27
